Theta_e
317 316 317 316 317 305 311 311 306 308 313 311 307 306 308 307 304 301 308 306 315 321 321 322 323 324 324 326 327 326 327 327 327 328 328 329 328 331 331 332 336 336 337 339 339 340 339 339 339 340 343 341 346 347 347 352 355 355 358 363 357 358 359
317 320 318 317 317 317 312 306 309 314 316 313 307 299 303 301 298 301 306 304 310 311 307 319 319 320 321 322 323 324 325 326 325 326 328 334 332 333 334 335 338 338 339 340 340 339 340 339 340 340 342 341 346 351 352 351 352 355 357 359 356 353 354
317 319 318 315 317 318 312 310 316 308 303 303 308 303 297 298 298 301 304 306 306 313 312 316 317 318 319 321 322 324 324 325 325 326 330 334 335 336 336 335 335 336 337 338 342 338 338 339 341 339 339 344 348 347 352 354 355 355 356 357 357 358 358
316 317 315 307 310 315 316 317 313 315 310 305 303 304 305 304 298 298 301 304 306 314 313 317 316 319 320 320 320 323 324 325 325 327 328 332 335 337 335 335 334 334 335 337 337 337 336 339 338 338 338 341 341 348 351 353 354 356 358 358 358 358 359
315 309 312 309 311 309 309 310 309 311 310 313 310 309 305 301 299 298 298 297 307 316 320 319 319 321 321 321 321 323 323 325 327 332 332 335 337 335 335 335 334 333 336 336 335 335 339 340 339 341 342 342 341 347 351 352 349 353 354 356 357 357 359
309 310 315 314 313 313 311 309 307 308 306 304 302 301 309 307 304 301 300 299 311 317 322 323 323 325 324 325 325 324 324 326 334 335 336 337 338 336 335 334 332 334 336 336 336 337 339 339 339 342 343 344 344 348 349 351 354 354 353 354 356 358 359
310 313 316 318 317 315 314 313 309 311 309 307 303 296 303 307 306 308 306 302 309 323 324 325 324 325 325 326 324 327 330 332 333 335 336 338 338 337 336 334 334 335 336 337 337 341 340 340 343 344 345 346 347 347 347 350 351 352 354 355 357 358 357
314 316 317 317 317 316 313 313 314 311 307 308 306 306 308 304 305 303 303 301 313 322 325 326 326 324 325 327 328 331 330 328 334 336 337 338 339 338 337 338 337 339 338 339 342 340 340 342 343 344 347 348 344 345 349 351 351 352 353 355 356 356 356
308 310 312 312 315 316 312 310 313 313 313 313 313 311 311 303 304 303 300 296 311 321 325 325 327 325 325 325 327 328 327 327 330 335 338 338 338 338 337 337 338 341 341 341 342 342 344 345 345 347 347 347 348 349 348 349 352 353 353 355 356 356 355
298 298 299 302 308 311 313 313 312 312 312 312 309 305 308 301 309 310 305 305 316 322 324 324 323 325 327 326 327 330 329 330 332 332 332 335 336 337 337 338 339 339 341 342 344 342 344 343 345 347 348 347 347 347 349 351 351 352 353 354 355 354 354
305 308 311 313 314 311 308 311 312 311 312 312 311 310 307 302 307 306 311 317 312 314 321 320 322 324 324 326 327 327 328 331 331 330 332 332 334 335 335 337 338 341 341 339 340 343 344 342 343 342 342 344 346 347 348 350 352 352 353 354 354 353 353
311 311 310 312 313 309 310 309 309 311 311 311 309 306 306 318 307 302 315 318 312 313 315 317 321 322 324 325 326 327 329 330 328 326 329 329 331 333 336 335 335 336 338 339 340 342 343 344 344 343 344 344 345 346 346 348 351 351 350 352 354 354 353
312 312 312 313 312 311 311 310 310 309 310 310 308 308 310 310 306 303 311 317 311 313 315 316 318 324 324 324 326 329 328 327 328 329 328 328 328 330 329 334 337 336 336 339 340 340 343 343 342 343 344 345 346 346 346 348 349 350 351 352 352 353 353
310 310 311 312 311 311 311 310 310 310 310 310 310 309 310 309 310 312 312 314 312 315 315 321 322 324 324 324 326 326 326 326 329 328 328 327 329 327 328 332 334 337 337 338 340 341 341 341 341 341 343 344 344 343 343 346 348 349 350 350 351 352 352
308 310 311 311 311 310 308 310 311 311 310 309 310 310 311 312 312 312 312 313 314 320 323 324 325 326 325 325 324 324 326 326 327 327 326 326 326 329 332 334 334 334 337 339 338 338 339 340 340 341 342 343 343 343 344 345 346 348 350 349 348 347 350
305 309 310 310 310 309 308 308 309 310 310 308 309 308 313 311 311 312 312 311 311 321 324 324 325 324 324 323 323 323 324 324 326 324 326 324 326 326 331 334 335 336 336 337 337 337 339 340 340 341 341 342 343 342 344 345 346 348 348 349 349 348 349
304 308 310 310 310 309 306 307 310 312 312 311 311 313 315 315 315 311 307 308 316 320 323 320 320 320 321 323 322 322 323 326 324 324 324 324 324 324 331 333 334 334 336 338 339 338 341 343 340 340 341 341 340 342 343 345 346 346 347 348 350 350 348
305 308 309 309 306 299 301 316 317 317 315 315 310 312 314 317 317 315 317 317 319 319 319 318 318 319 322 323 326 325 325 324 323 323 323 325 326 327 328 328 333 336 335 335 337 340 339 339 338 340 342 341 341 344 345 346 345 346 346 347 348 347 349
304 308 308 303 298 300 313 318 318 319 320 319 317 316 316 316 316 316 315 316 318 319 321 321 322 324 324 324 324 325 325 325 323 323 324 327 327 326 329 330 328 334 338 338 338 337 338 339 339 339 341 343 344 343 344 344 345 345 346 346 346 346 348
310 306 304 296 299 314 318 319 319 321 319 319 315 314 316 317 317 318 317 319 321 323 323 323 324 323 323 324 326 326 325 324 323 323 323 324 329 329 329 329 335 335 335 336 337 338 341 339 339 339 338 341 341 341 344 343 344 345 346 345 345 347 345
304 306 304 303 311 309 312 315 316 316 315 316 315 309 313 317 317 316 314 316 319 321 322 322 321 323 323 321 322 325 325 325 325 325 324 325 326 328 330 330 330 335 338 335 337 337 337 337 337 338 341 342 342 341 341 342 343 344 345 344 345 346 346
308 303 301 302 302 300 307 318 323 324 323 322 320 315 311 318 320 321 320 319 320 321 321 321 322 323 318 314 317 323 325 326 325 326 326 327 328 329 329 334 334 336 337 334 332 330 330 333 336 340 342 341 341 341 341 342 342 342 343 343 345 346 342
306 304 300 300 299 303 315 319 322 324 323 320 324 313 306 319 321 322 322 321 321 321 320 321 323 318 311 312 317 323 325 326 327 326 326 327 328 328 331 328 331 331 335 334 330 330 336 332 337 339 340 341 340 339 341 342 342 342 342 343 345 343 345
304 303 301 300 306 306 316 321 322 322 326 320 316 302 303 317 322 323 323 321 321 322 323 323 322 317 311 313 320 324 325 326 327 327 327 327 327 331 328 328 331 332 336 334 332 333 334 337 338 339 339 338 340 340 341 342 341 341 343 344 346 348 347
305 304 302 304 306 321 319 320 322 323 324 318 305 300 311 321 322 322 323 322 323 324 323 324 319 323 324 325 327 327 327 327 327 327 328 328 328 328 329 327 336 330 328 327 327 331 336 340 338 339 340 340 340 341 341 341 341 342 345 347 347 347 347
303 305 302 303 307 318 321 323 323 324 317 306 306 315 324 323 323 323 322 321 323 324 324 324 324 325 326 328 327 327 326 325 329 328 328 328 330 332 331 333 332 329 328 331 335 334 337 339 341 341 340 339 339 340 340 338 340 343 344 345 345 346 347
310 308 304 302 295 318 322 321 320 323 312 312 321 324 324 323 321 322 322 323 324 325 324 325 325 325 326 326 326 326 327 327 327 326 327 327 326 328 330 329 331 334 336 334 335 338 339 341 342 341 340 338 338 339 339 340 341 343 344 344 345 346 347
304 307 304 303 313 317 321 320 312 318 322 324 326 324 321 324 323 321 321 324 325 325 325 324 325 326 325 325 326 326 326 326 327 327 327 327 328 329 327 327 336 337 337 338 338 340 340 341 341 341 340 339 338 338 339 343 343 344 344 344 346 346 347
311 308 313 320 326 324 323 322 323 323 327 327 326 325 324 323 323 326 324 324 325 326 326 326 326 324 325 325 326 325 326 326 326 325 326 326 325 328 330 335 338 338 338 338 337 337 339 341 342 343 342 339 338 338 341 343 343 343 344 345 346 342 339
318 319 318 319 325 324 322 324 325 324 324 325 326 326 324 324 325 326 324 325 327 327 328 325 325 325 326 326 327 327 326 325 325 327 325 324 329 332 334 336 337 338 339 338 337 335 336 338 339 341 341 339 338 340 342 343 344 344 341 341 344 345 343
312 304 319 318 321 322 322 325 327 326 327 325 324 325 327 327 327 327 328 328 328 327 329 326 326 326 327 327 328 329 329 327 326 324 324 327 330 332 334 336 337 337 337 334 334 335 335 337 338 339 339 339 340 341 343 342 342 342 341 339 342 343 342
312 312 319 321 320 323 324 324 323 323 326 326 326 326 329 328 329 328 328 328 327 328 325 326 325 324 325 324 323 323 323 323 324 326 328 330 331 334 336 337 337 337 336 334 334 335 335 338 339 339 339 340 340 340 340 341 342 339 339 338 341 341 341
316 319 321 320 322 321 322 326 326 328 326 327 326 327 326 327 327 328 329 329 328 327 325 326 326 325 325 324 324 323 324 325 326 328 331 333 334 335 335 336 337 337 336 335 337 337 337 339 338 339 339 339 341 340 341 341 343 341 341 341 340 339 339
310 311 315 318 312 313 318 321 323 324 326 325 325 326 326 327 327 328 327 328 329 329 329 329 327 323 323 324 326 324 325 326 329 331 333 335 335 335 336 335 336 337 337 337 337 337 337 338 338 338 338 339 341 341 341 341 341 339 337 338 338 339 339
311 317 319 324 322 320 322 322 324 325 326 327 326 325 324 325 328 329 328 327 328 328 328 328 325 325 325 326 327 326 326 329 333 333 334 335 335 334 334 334 335 336 337 337 337 336 337 338 337 337 338 339 340 340 343 344 343 342 341 339 337 338 339
318 320 320 321 323 320 322 323 324 323 328 327 325 325 325 326 328 328 327 327 327 327 327 327 328 328 328 329 329 328 329 331 332 332 334 334 334 333 334 334 335 335 334 335 336 335 336 336 336 337 336 338 339 340 342 342 342 341 340 340 338 338 339
320 324 324 324 325 326 325 325 325 325 326 327 325 325 326 327 328 330 330 329 329 328 327 327 329 330 330 329 330 330 329 330 332 332 333 334 333 332 333 333 333 333 334 334 335 335 335 335 334 335 336 337 339 340 342 340 340 337 340 339 335 337 340
Wind_Speed
8 2 6 7 1 8 5 4 7 7 5 10 8 8 8 11 9 10 3 4 11 13 9 14 13 13 13 11 10 10 8 7 5 5 4 5 3 3 1 3 6 1 4 1 4 4 3 3 4 4 3 5 4 3 3 4 4 5 5 5 8 8 8
13 4 1 8 8 8 7 7 3 11 5 6 6 7 6 7 8 7 4 7 10 10 6 9 12 11 10 10 10 10 9 6 7 7 5 6 2 3 3 1 3 4 4 4 4 4 3 4 5 5 5 5 4 4 4 6 5 4 4 6 7 10 10
11 3 4 11 11 11 11 11 11 8 5 4 5 4 7 7 6 4 8 11 6 5 8 8 9 8 10 8 8 9 8 7 6 7 7 6 3 2 1 4 4 4 3 4 4 2 5 5 3 6 7 6 5 5 4 3 4 5 6 6 7 7 9
5 5 6 8 9 14 14 7 9 8 5 7 7 4 7 5 9 7 4 9 5 2 3 8 5 6 12 10 8 6 6 7 6 7 7 6 4 3 2 3 4 6 7 2 4 5 6 4 6 7 8 6 8 6 6 6 5 6 6 7 7 8 8
5 7 6 9 8 8 10 9 5 3 4 2 4 6 7 7 8 6 7 9 6 5 8 9 4 5 12 13 10 6 3 3 7 7 7 7 4 2 1 4 5 7 5 6 6 6 5 5 6 6 6 7 8 6 6 7 8 8 8 8 7 7 7
10 3 5 13 7 10 5 6 6 7 9 9 8 8 2 6 6 5 6 5 9 5 5 9 8 10 10 4 8 5 4 3 11 7 5 6 3 1 4 5 7 5 5 6 6 6 5 6 7 6 7 7 8 7 7 7 7 6 7 7 7 7 8
4 7 7 4 8 9 10 8 8 8 9 8 8 6 8 6 7 10 8 10 7 4 7 7 7 5 6 5 1 3 5 7 5 4 6 5 1 2 4 6 5 4 5 5 5 4 5 6 6 6 6 6 7 8 9 7 8 8 8 8 7 7 8
10 11 6 10 3 5 9 10 10 9 9 7 6 6 8 8 10 9 7 8 5 4 3 6 5 6 4 2 5 5 1 1 5 3 5 3 2 3 4 5 4 4 5 6 4 6 6 5 6 6 5 5 8 8 7 7 8 9 9 7 7 8 9
5 9 6 7 4 4 6 7 3 1 6 8 8 9 7 9 10 13 8 11 5 1 6 5 7 4 8 2 6 1 3 4 5 6 4 2 3 4 5 5 5 5 5 4 4 5 4 4 5 5 5 6 6 7 7 7 7 8 8 7 7 8 9
9 7 5 4 4 6 5 5 6 8 10 7 3 7 5 5 5 6 6 5 7 9 5 7 5 6 6 1 2 6 2 3 4 2 1 3 3 3 4 6 6 5 4 4 4 4 4 5 5 5 6 6 6 6 7 7 8 7 7 8 8 8 8
8 6 5 6 6 9 11 10 10 13 15 9 8 5 7 9 6 8 2 6 5 3 9 7 3 7 3 8 6 6 4 5 3 2 3 2 2 3 6 5 4 5 4 5 5 5 4 6 6 7 7 7 7 7 7 8 7 7 7 7 8 8 8
11 13 15 13 14 14 13 15 14 12 14 15 11 7 8 5 7 8 2 4 6 5 9 5 5 7 7 4 3 3 4 2 3 3 3 4 4 4 3 4 5 5 5 5 5 5 6 5 5 7 7 7 7 7 8 7 7 8 7 7 7 6 7
13 14 13 10 11 11 12 13 14 15 14 13 14 10 8 9 8 10 7 8 9 9 10 8 7 9 7 9 11 6 4 4 4 2 3 5 5 5 6 5 5 5 5 5 6 6 6 6 7 7 7 7 7 8 8 8 7 8 8 8 9 9 8
13 16 14 11 13 13 13 12 12 13 13 12 11 12 11 10 8 7 9 8 11 9 8 12 13 7 6 6 5 1 4 3 2 5 5 5 5 6 7 6 5 5 5 5 6 6 7 7 7 7 7 7 7 9 9 9 9 9 8 9 9 10 9
11 13 15 13 14 16 18 14 11 12 14 15 14 12 9 7 8 9 9 8 7 5 6 6 4 4 1 4 3 5 3 6 7 5 4 5 7 7 6 5 4 4 5 5 6 7 7 7 7 7 7 7 8 9 9 9 9 9 9 10 10 9 10
10 9 11 12 15 17 17 13 10 12 13 13 11 9 6 8 5 5 6 7 6 6 4 5 1 5 8 9 7 7 3 3 5 4 6 7 7 7 5 5 5 5 6 6 6 7 7 7 7 7 8 8 8 9 9 9 9 9 10 10 10 10 11
9 10 9 13 11 10 6 6 10 13 17 14 9 5 3 3 6 7 8 8 2 3 4 3 5 6 5 7 9 8 7 5 6 8 8 8 8 8 7 6 6 6 6 5 6 7 6 5 6 9 9 8 9 9 9 8 9 10 10 10 10 9 10
9 10 13 10 5 9 7 4 5 12 16 7 2 3 7 9 4 5 5 5 8 10 10 9 10 8 7 7 6 4 4 5 6 6 6 8 8 9 7 7 6 5 5 5 5 6 7 8 9 8 8 9 9 8 8 8 9 10 10 10 10 11 11
8 9 10 11 11 10 4 1 2 8 6 7 7 6 6 7 8 10 10 9 9 7 6 6 6 6 6 5 6 7 9 8 8 8 9 6 7 8 6 7 9 5 4 5 6 7 8 8 8 8 8 7 7 8 8 10 9 10 10 11 11 10 9
6 7 7 10 7 6 4 5 5 5 3 4 2 7 8 9 8 7 10 8 7 3 1 3 5 5 6 5 7 9 12 11 7 8 7 7 6 6 7 11 7 6 6 5 6 6 6 7 8 8 9 8 9 9 9 10 10 10 10 11 11 8 7
8 6 7 10 10 11 8 8 7 5 3 3 2 3 3 7 9 8 10 9 1 4 5 6 6 6 6 7 8 13 6 7 7 6 7 10 13 11 10 9 9 8 6 7 6 7 8 8 9 9 8 8 9 10 11 11 11 11 11 11 10 9 8
6 8 9 9 8 9 3 7 7 8 9 9 7 2 6 5 5 7 5 6 6 4 3 4 6 7 7 7 5 6 8 9 12 13 13 13 12 12 12 9 9 8 7 7 9 11 13 11 9 8 8 9 10 11 11 11 11 11 11 11 10 7 6
7 8 8 8 8 4 5 5 8 8 4 4 3 2 5 6 7 9 8 5 6 5 5 6 6 5 7 7 6 6 11 10 11 11 11 11 12 13 11 12 10 10 7 8 12 13 9 10 9 10 11 11 11 10 10 10 10 11 12 11 9 8 6
7 9 8 9 5 2 6 8 6 8 5 1 4 8 0 3 7 5 7 4 5 5 6 5 5 5 7 7 7 11 13 12 12 11 12 13 13 11 12 13 11 10 8 8 11 10 9 9 10 11 12 12 11 10 11 10 11 12 11 10 8 8 7
9 11 9 7 7 5 1 6 5 6 4 3 8 8 4 3 7 2 3 6 5 6 4 2 5 4 6 7 8 9 9 10 10 12 12 13 13 12 11 12 10 10 11 12 12 10 8 8 10 10 10 10 9 10 11 11 12 11 10 9 8 9 8
9 8 10 8 2 8 10 4 6 5 4 6 5 3 5 3 5 5 6 7 4 3 3 4 5 6 8 9 9 10 12 12 10 11 12 13 12 10 11 11 11 12 12 9 9 11 10 10 9 8 9 10 11 12 11 13 13 12 11 10 9 9 9
6 8 10 9 4 4 5 5 1 3 4 3 2 4 2 5 8 4 5 3 5 6 4 4 6 8 9 10 11 11 11 11 12 13 13 12 12 11 10 10 11 9 8 9 10 10 10 10 8 8 10 12 12 12 13 13 13 11 10 10 10 9 9
8 3 4 2 1 4 7 4 5 3 3 3 5 4 7 6 7 8 8 4 4 6 6 7 7 8 10 10 11 12 12 12 13 13 12 12 11 9 11 12 11 10 9 9 10 10 10 9 9 10 11 11 12 13 15 12 12 11 10 10 9 9 8
6 7 4 3 5 4 5 6 6 9 6 3 5 5 5 4 4 6 4 6 7 7 8 7 7 9 9 11 12 12 12 12 13 13 13 12 13 10 10 10 10 9 9 11 11 12 11 10 8 8 9 11 13 15 13 10 10 10 10 10 9 10 12
9 9 12 7 9 7 5 6 7 6 6 5 4 5 7 7 6 6 6 7 7 7 7 8 8 8 8 10 11 12 12 13 13 11 12 12 10 11 11 11 10 10 10 10 11 12 13 12 11 9 10 11 14 12 12 10 9 8 10 11 10 9 9
6 5 4 4 5 5 4 4 4 5 4 8 8 7 5 4 5 6 5 5 6 7 6 7 8 9 10 11 10 10 9 10 11 14 13 11 11 12 12 12 11 10 10 11 12 12 13 12 11 11 12 12 12 11 12 12 10 8 9 11 11 9 10
8 8 9 12 12 8 5 5 7 7 6 7 8 5 4 4 4 5 5 6 7 7 8 9 10 11 12 13 13 12 12 13 12 11 11 11 11 11 11 11 12 12 11 11 11 12 12 11 10 11 12 12 12 12 13 12 6 6 8 9 10 10 12
9 9 10 11 11 14 8 9 6 7 8 6 7 8 6 3 3 4 6 6 7 7 9 9 10 11 12 12 13 13 12 11 11 10 9 10 11 11 11 12 11 10 11 12 12 12 12 10 11 11 12 12 12 13 12 12 8 8 8 11 11 11 10
9 6 7 7 5 5 5 2 0 2 5 0 1 4 4 5 6 5 6 6 7 8 8 8 9 12 11 11 11 12 11 11 11 11 10 10 11 11 11 10 11 11 11 11 12 13 11 10 10 11 13 13 11 12 11 9 8 9 11 11 12 10 9
7 3 4 2 1 5 4 4 3 5 4 3 3 6 7 6 4 4 4 6 7 7 8 9 10 10 10 11 11 12 11 11 10 10 11 10 10 11 11 12 11 11 11 11 12 13 12 11 11 11 11 11 11 12 10 6 6 6 8 8 10 9 9
8 8 9 7 6 6 5 6 7 6 2 3 3 5 5 5 5 5 6 7 8 8 9 9 9 9 10 11 11 12 12 11 11 11 10 10 11 11 10 10 11 12 13 12 12 12 11 11 12 11 12 11 11 11 10 7 8 9 8 7 9 10 9
5 6 6 6 3 4 6 7 7 6 3 2 4 6 5 6 6 5 5 6 7 9 9 9 8 8 9 10 10 10 11 11 11 11 11 10 10 10 10 12 13 12 12 11 12 12 12 12 13 12 11 11 10 10 8 9 12 11 9 8 10 11 10
Wind_Direction
221 347 39 258 323 257 58 324 246 21 353 278 314 303 277 279 251 251 265 266 113 129 126 131 128 130 124 138 143 140 148 157 171 139 196 186 174 128 131 152 119 151 247 253 278 262 282 326 332 324 331 305 312 315 314 319 316 290 275 273 278 277 275
219 135 179 301 278 280 288 261 334 2 306 313 303 298 330 291 297 305 247 261 145 152 123 143 137 135 151 140 147 147 139 150 173 164 167 68 353 42 110 274 140 216 223 231 257 273 279 333 322 317 311 307 344 9 313 282 274 288 304 296 286 278 271
102 103 224 243 242 251 266 284 353 306 314 258 205 226 248 278 275 314 297 285 38 80 139 164 156 154 147 149 146 145 158 175 207 157 134 147 180 140 70 272 270 226 230 238 235 318 333 309 339 320 325 332 320 278 276 300 316 305 296 289 280 274 272
120 203 197 251 231 195 228 256 270 236 245 238 273 252 313 302 280 284 286 319 65 37 99 153 193 182 155 155 149 166 166 206 199 172 160 164 164 131 199 279 311 313 279 277 356 342 314 338 339 327 319 321 307 344 349 324 306 292 291 293 294 288 285
42 251 189 249 297 167 190 215 265 287 213 12 245 283 270 290 298 292 291 283 108 70 50 110 70 9 155 150 154 125 241 264 167 109 101 108 110 132 334 297 292 282 353 346 333 324 339 350 326 319 323 328 324 319 320 320 309 304 293 285 284 285 286
218 258 34 19 327 13 328 2 321 317 318 296 300 301 357 275 274 277 284 286 93 65 62 70 49 37 61 109 124 133 239 130 66 84 90 103 114 311 309 309 293 354 345 317 320 329 342 331 311 320 334 323 315 328 316 301 293 293 296 295 292 293 291
261 240 216 263 343 335 305 316 303 283 273 305 288 278 276 295 290 326 321 303 91 46 69 56 62 55 59 45 104 129 82 73 111 128 121 119 166 309 300 292 319 328 316 315 312 347 327 308 320 321 311 314 312 304 302 306 306 296 289 286 283 283 283
290 290 281 132 143 288 280 257 255 271 268 268 301 311 342 321 305 287 294 287 85 92 44 68 83 115 101 130 80 90 137 199 112 150 116 142 220 255 272 290 291 312 304 297 338 333 307 322 314 309 306 308 301 303 299 292 294 298 295 290 287 284 284
271 246 257 258 127 270 271 263 265 71 337 326 313 313 308 290 289 286 290 286 129 149 115 121 144 147 126 137 119 356 219 196 172 155 162 186 228 237 259 282 301 295 283 311 319 287 307 313 312 305 309 297 288 289 298 298 294 291 288 285 286 286 286
253 249 239 242 262 270 315 312 322 244 235 213 263 270 278 282 307 309 283 284 122 165 146 137 172 139 155 71 165 145 211 112 77 123 136 208 202 240 262 264 262 279 295 283 274 304 310 313 308 311 300 295 293 297 295 297 291 290 289 290 286 288 287
295 310 314 291 287 259 249 273 302 308 302 289 258 266 272 266 281 278 21 349 301 213 156 164 130 167 164 161 169 180 186 111 141 206 216 195 231 255 258 259 267 260 262 289 310 299 313 307 307 305 301 297 298 294 292 293 293 289 289 287 285 287 290
254 267 265 269 268 274 275 272 270 282 294 295 281 258 274 5 313 276 45 33 331 333 326 298 204 182 170 210 216 144 121 86 316 316 305 275 265 259 267 275 288 301 300 298 299 308 297 297 296 290 293 295 298 301 297 294 293 293 292 289 284 276 280
267 268 276 274 278 291 302 292 282 274 277 281 282 279 257 255 262 276 297 316 314 314 308 328 328 43 68 58 73 53 22 308 269 266 301 293 288 298 291 295 284 287 291 293 300 294 294 293 291 294 298 301 302 300 296 292 292 292 294 290 283 274 270
292 288 286 281 279 278 266 263 271 276 273 275 277 276 281 285 279 276 284 295 301 319 315 42 56 55 66 77 78 157 219 227 245 280 267 278 300 289 284 282 280 278 292 303 291 308 305 304 307 307 305 304 303 300 296 295 295 295 296 288 284 279 273
287 288 290 284 270 265 266 263 260 268 276 272 253 248 246 256 268 269 271 276 294 37 73 87 15 45 45 258 258 309 266 247 248 240 270 296 288 284 273 266 284 311 287 291 306 298 301 303 302 300 300 299 294 292 292 296 296 294 294 290 283 283 280
271 268 271 275 268 259 255 256 266 280 269 251 255 258 247 258 264 280 295 301 284 98 314 29 341 279 265 258 245 245 284 341 360 333 304 295 288 289 315 336 318 315 327 313 307 305 305 303 305 306 298 291 294 295 296 296 296 294 292 289 286 285 281
275 272 269 273 295 323 296 261 264 262 241 246 262 263 75 221 265 281 289 289 23 107 108 253 257 272 316 351 13 355 333 340 315 308 294 294 305 314 313 307 330 313 294 305 304 299 297 311 309 297 296 300 299 296 294 297 298 293 289 287 287 278 277
279 295 295 298 283 253 260 19 349 43 25 36 260 347 17 3 4 316 325 310 324 319 315 322 332 336 349 350 331 337 328 310 293 283 307 295 301 300 305 311 301 297 307 299 311 330 331 309 298 301 302 294 287 290 298 298 293 291 289 287 284 287 289
277 288 280 273 251 249 279 60 51 59 50 45 33 5 333 314 308 303 293 290 296 298 310 311 329 4 334 321 337 325 306 285 276 262 262 296 271 280 301 313 302 303 350 4 348 319 301 305 305 298 293 295 306 306 304 297 292 288 286 286 285 288 295
269 265 264 269 278 94 128 151 114 100 132 89 353 272 247 244 257 250 243 247 263 259 333 336 353 345 344 360 321 297 280 261 255 290 290 262 278 321 336 328 356 19 352 328 313 308 313 303 308 313 310 313 309 304 299 293 291 288 288 287 284 285 285
268 267 266 267 298 277 218 158 177 153 236 122 229 308 350 347 305 297 290 282 346 3 344 360 332 342 344 319 293 279 292 334 304 274 313 336 334 342 321 325 351 339 341 320 324 321 311 311 309 304 310 315 310 302 298 296 294 291 288 286 286 278 277
256 282 283 278 267 261 312 79 98 52 70 73 83 324 279 291 2 353 12 54 52 14 3 342 354 344 300 290 298 312 37 358 358 340 337 325 319 319 330 347 331 329 321 323 318 317 307 305 314 320 321 313 303 298 295 294 293 293 292 291 296 297 285
271 253 254 262 271 299 77 129 92 99 102 96 137 287 275 53 34 29 45 33 26 355 342 343 342 318 298 298 301 339 7 345 341 331 321 329 329 327 328 323 325 323 326 333 314 301 300 318 325 319 313 305 300 300 302 300 300 299 297 298 312 298 284
255 276 278 277 274 5 124 125 145 122 102 53 303 284 259 355 54 3 23 7 345 338 324 326 305 294 292 305 332 344 332 332 325 328 329 321 320 320 327 325 327 325 327 315 297 301 325 327 320 313 307 305 306 300 292 291 289 288 291 301 295 271 278
229 223 254 266 270 101 301 122 112 105 40 337 284 292 55 335 7 41 27 291 311 329 322 283 283 294 315 321 321 316 315 318 321 321 319 312 315 324 329 325 333 323 315 302 305 322 324 322 320 316 312 304 289 289 289 288 287 289 295 301 306 302 294
260 266 254 250 283 24 346 17 72 18 289 267 325 75 270 43 286 354 323 313 303 276 275 299 294 302 299 303 313 322 325 317 310 306 308 316 321 319 322 325 321 304 301 323 338 326 323 320 322 315 306 292 294 294 294 290 293 299 305 313 311 301 288
254 247 262 259 251 52 310 150 222 73 305 16 114 305 298 312 308 318 301 312 317 321 329 318 303 301 308 315 312 306 307 313 314 315 313 311 321 322 321 314 307 343 359 341 327 323 318 314 302 295 291 293 297 296 290 292 297 302 311 309 306 294 283
295 349 294 305 335 225 287 7 310 7 279 282 301 309 297 310 298 301 305 349 2 343 320 324 334 327 318 310 313 317 315 313 311 304 309 319 317 318 314 327 356 0 335 333 323 317 315 312 311 300 299 302 299 294 289 295 300 305 309 308 294 285 280
292 303 324 190 240 218 250 248 231 248 269 224 235 253 255 285 326 7 343 326 335 338 349 334 326 318 313 317 317 310 307 303 306 315 315 317 319 325 349 360 339 339 330 324 323 315 312 307 289 286 296 300 301 296 296 302 308 311 308 308 307 308 308
298 276 290 292 201 222 237 221 247 278 319 328 358 311 302 316 319 334 322 341 353 346 336 325 309 303 309 301 297 296 303 310 313 318 322 319 326 340 339 332 338 327 323 321 317 311 309 309 308 305 303 304 301 298 305 307 309 312 320 313 309 304 300
292 265 225 257 11 1 311 322 319 308 312 294 303 309 310 343 352 343 356 349 332 316 321 303 313 310 307 301 301 307 309 317 329 326 318 331 338 332 330 325 322 319 315 311 309 308 304 307 307 308 306 303 300 303 306 310 323 333 321 315 309 304 305
275 291 298 306 304 314 299 265 277 284 309 354 24 11 41 28 359 319 327 332 312 333 320 328 319 313 310 309 310 315 323 324 320 316 333 337 327 322 318 316 315 309 306 307 305 304 303 303 308 308 306 303 306 307 308 310 317 312 301 297 309 310 314
268 275 271 265 258 251 291 360 8 48 50 10 346 340 340 325 303 337 330 329 319 321 321 324 314 307 305 311 323 318 314 314 313 335 342 330 319 313 312 313 311 305 305 307 306 304 304 308 305 303 303 305 305 305 306 313 321 303 310 313 315 319 318
246 260 315 342 323 307 7 324 108 104 108 226 240 266 288 317 317 332 337 334 328 324 316 309 309 309 313 313 311 311 311 315 342 339 326 315 308 312 314 310 306 304 304 304 304 302 301 305 306 309 306 304 301 302 313 320 325 324 319 313 319 319 323
274 283 206 322 294 273 275 307 344 352 326 311 336 333 318 321 16 24 327 313 315 317 314 313 307 305 311 319 322 317 323 336 332 323 315 309 312 316 315 312 308 304 305 304 301 301 304 313 310 303 302 305 307 308 311 307 301 296 305 317 311 316 323
301 317 319 349 1 327 327 325 336 310 339 347 303 295 327 359 357 342 332 335 326 315 310 310 313 322 327 328 327 323 323 322 318 314 312 313 311 312 313 311 309 310 308 312 312 310 312 309 306 306 308 309 306 309 314 309 309 317 311 307 307 314 320
300 337 342 339 334 328 310 295 291 312 331 2 336 326 340 353 336 347 335 321 304 307 311 311 319 336 336 327 324 322 318 314 314 319 318 306 308 316 315 313 313 313 313 314 309 306 306 310 312 313 312 311 312 309 321 331 324 322 318 316 307 314 318